Regional Weather Roundup
Issued by NWS

Home | Current Version | Previous Version | Graphics & Text | Print | Product List | Glossary Off
Versions: 1 2 3 4 5 6 7 8 9 10 11 12 13 14 15 16 17 18 19 20 21 22 23 24 25 26 27 28 29 30 31 32 33 34 35 36 37 38 39 40 41 42 43 44 45 46 47 48 49 50

000
ASUS45 KBOI 211410
RWRID

IDAHO REGIONAL WEATHER ROUNDUP
NATIONAL WEATHER SERVICE BOISE ID
800 AM MDT FRI JUL 21 2017

NOTE: "FAIR" INDICATES FEW OR NO CLOUDS BELOW 12000 FEET
WITH NO SIGNIFICANT WEATHER AND/OR OBSTRUCTIONS TO VISIBILITY

IDZ012-014-211500-
SOUTHWEST IDAHO


CITY           SKY/WX    TMP DP  RH WIND       PRES   REMARKS
BOISE          SUNNY     61  44  53 CALM      30.07R
CALDWELL       SUNNY     65  44  46 W8        30.07R
MOUNTAIN HOME  SUNNY     65  43  44 W7        30.07R
$$

IDZ016-017-211500-
SOUTHCENTRAL IDAHO


CITY           SKY/WX    TMP DP  RH WIND       PRES   REMARKS
BURLEY         SUNNY     61  45  55 S3        30.11R
JEROME         SUNNY     64  40  41 SW7       30.12R
TWIN FALLS     SUNNY     66  40  38 SW12      30.12R
$$

IDZ019>023-211500-
SOUTHEAST IDAHO


CITY           SKY/WX    TMP DP  RH WIND       PRES   REMARKS
IDAHO FALLS    MOSUNNY   56  48  74 VRB3      30.16R
POCATELLO      SUNNY     68  39  34 S5        30.13R
REXBURG        SUNNY     52  45  77 NE6       30.16R
$$

IDZ006-010-011-018-031-032-211500-
CENTRAL IDAHO MOUNTAINS


CITY           SKY/WX    TMP DP  RH WIND       PRES   REMARKS
MCCALL         SUNNY     50  40  68 CALM      30.17R
HAILEY         SUNNY     55  32  41 NW12      30.20S
STANLEY          N/A     42  32  67 CALM      30.30R
SALMON         NOT AVBL
CHALLIS        SUNNY     57  32  38 CALM      30.20R
$$

IDZ002-004-006-007-026-211500-
NORTHERN IDAHO


CITY           SKY/WX    TMP DP  RH WIND       PRES   REMARKS
LEWISTON       SUNNY     61  39  44 CALM      30.10R
LOWELL           N/A     52  44  74 CALM      30.15R
COEUR D`ALENE  SUNNY     59  43  55 S5        30.12R
MULLAN PASS    SUNNY     49  37  63 VRB5      30.20R
$$



USA.gov is the U.S. government's official web portal to all federal, state and local government web resources and services.